sat.trackr.live / text

‹ back to catalog

COSMOS 2591

NORAD 65267 · 2025-182A

PAYLOAD ACTIVE UNKNOWN

§ Identity

Operator
Country
CIS
Launch date
2025-08-21
Launch site
PLMSC
Launch vehicle
Mass (kg)
RCS (m²)

External: N2YO · Heavens-Above · Gunter

§ Orbital elements

Epoch: 2026-09-20T21:22:03.440640Z

Period
90.20 min
Inclination
96.5782°
Eccentricity
0.0008067
Mean motion
15.96384519 rev/d
Perigee alt
279.1 km
Apogee alt
289.8 km
Semi-major
6,662.6 km
B*
1.4989e-4
RAAN
193.0236°
Arg perigee
116.1453°
Mean anomaly
244.0656°
Rev number
6,296

§ Raw data

COSMOS 25911 65267U 25182A   26263.89031760  .00061805  32987-5  14989-3 0  99952 65267  96.5782 193.0236 0008067 116.1453 244.0656 15.96384519 62962

JSON: /api/v1/satellites/65267 · /tle

For live sub-satellite position, see the globe view (requires WebGL).

§ Visibility from observer

Set your observer location to see the next 7 days of passes ≥ 10°. The values pass through the URL so the page stays shareable.

No JS? Fill the form by hand. The geolocation button needs JavaScript.